Location: Doux
(49.5045°N, 4.4321°E)
Time: 11:22:01
(UTC+00:00)

NPP - Pass Details

Date: 23 May 2024
Orbit: 826 x 827 km, 98.7° (Epoch: 14 June)

Event Time Altitude Azimuth Distance (km) Brightness Sun altitude
Rises 00:59:23 0° 19° (NNE) 3,379 8.6 -17.6°
Reaches altitude 10° 01:01:52 10° 26° (NNE) 2,441 7.4 -17.5°
Maximum altitude 01:07:00 43° 98° (E) 1,147 4.5 -17.2°
Enters shadow 01:10:34 19° 162° (SSE) 1,882 5.1 -17.0°
